Вернуться в каталог

STARLINK-36759

АктивенСвязьSSO
NORAD 68771·PAYLOAD·🇺🇸 United States

Запущен Apr 19, 2026 с Vandenberg Space Force Base

Loading…

Ближайшие Пролёты (ближайшие 24 часа)

TLE

СвежийSource: CelesTrak SupGP

Эпоха: Sep 15, 2026, 04:06 UTC

1 68771C 26086F   26258.17131944 -.00051153  00000+0 -15881-2 0  2583
2 68771  97.2842 293.6320 0001062  91.2483 333.8661 15.33461055    18

Отслеживайте STARLINK-36759 в реальном времени с AllMySat

Download on the App Store